Regional Weather Roundup
Issued by NWS Charleston, SC

Current Version | Previous Version | Text Only | Print | Product List | Glossary Off
Versions: 1 2 3 4 5 6 7 8 9 10 11 12 13 14 15 16 17 18 19 20 21 22 23 24 25 26 27 28 29 30 31 32 33 34 35 36 37 38 39 40 41 42 43 44 45 46 47 48 49 50

000
ASUS42 KCHS 220712
RWRCHS

REGIONAL WEATHER ROUNDUP
NATIONAL WEATHER SERVICE CHARLESTON SC
300 AM EDT SUN OCT 22 2017

NOTE: "FAIR" INDICATES FEW OR NO CLOUDS BELOW 12,000 FEET WITH NO
SIGNIFICANT WEATHER AND/OR OBSTRUCTIONS TO VISIBILITY.

NOT ALL STATIONS ARE QUALITY CONTROLLED. USE DATA WITH CAUTION...
ESPECIALLY DEWPOINT OBSERVATIONS.

SCZ027-030-031-034>040-042>050-220800-
...SOUTHEAST SOUTH CAROLINA...

CITY           SKY/WX    TMP DP  RH WIND       PRES   REMARKS
N CHARLESTON   CLOUDY    67  66  97 NE7       30.25F
WATERFRONT PRK   N/A     72  68  87 NE9       30.09F
JOHNS ISLAND   FAIR      70  68  94 NE6       30.25S
PINOPOLIS        N/A     68  66  94 E5        30.18F
MONCKS CORNER  FAIR      64  63  94 NE6       30.27S
SUMMERVILLE    FAIR      63  61  94 NE3       30.27F
BEAUFORT MCAS  MOCLDY    70  68  93 MISG      30.24F
BEAUFORT ARPT  FAIR      70  68  94 NE7       30.23F
HILTON HEAD IS PTCLDY    72  70  94 NE6       30.23F
WALTERBORO     CLOUDY    63  63 100 NE5       30.27S
ALLENDALE        N/A     66  64  94 CALM        N/A

...SOUTHERN MIDLANDS AND PEE DEE...

CITY           SKY/WX    TMP DP  RH WIND       PRES   REMARKS
GEORGETOWN     FAIR      61  59  94 CALM      30.28F
KINGSTREE      PTSUNNY   59  55  88 CALM      30.29S
ORANGEBURG     PTCLDY    61  60  97 CALM      30.28F
BARNWELL         N/A     68  64  88 E7        30.27F
AIKEN          FAIR      57  55  94 E3        30.31F
MANNING        FAIR      61  59  94 MISG      30.29S
COLUMBIA       CLOUDY    57  55  93 CALM      30.28F
SUMTER         PTCLDY    56  53  89 NE6       30.27F
FLORENCE       CLOUDY    59  59 100 NE3       30.30F
MYRTLE BEACH   CLEAR     67  65  93 NE6       30.30S
N MYRTLE BEACH CLOUDY    64  64 100 NE5       30.28F

$$

GAZ063-065-086>088-099>101-113>116-118-119-134>141-150-220800-
...SOUTHEAST GEORGIA...

CITY           SKY/WX    TMP DP  RH WIND       PRES   REMARKS
SAVANNAH ARPT  PTCLDY    69  67  93 NE7       30.23S
HUNTER AAF     PTCLDY    70  67  92 NE3       30.19F
FORT STEWART   PTCLDY    68  65  92 NE8       30.20F
STATESBORO     CLOUDY    67  62  83 CALM      30.25S
SYLVANIA       PTSUNNY   65  64  99 CALM      30.26S
CLAXTON        PTSUNNY   66  65  94 NE3       30.23F

...CSRA...CENTRAL AND FAR SOUTHEAST GEORGIA...

CITY           SKY/WX    TMP DP  RH WIND       PRES   REMARKS
THOMSON        PTCLDY    56  53  89 SE3       30.32F
AUGUSTA-BUSH   CLOUDY    59  56  89 CALM      30.26F
AUGUSTA-DANIEL CLOUDY    66  60  81 E5        30.28F
SWAINSBORO     FAIR      64  64 100 MISG      30.25F
VIDALIA        PTCLDY    66  64  94 E5        30.23F
EASTMAN        FAIR      64  64 100 CALM      30.25F
HAZLEHURST     FAIR      68  65  91 E7        30.21F
ALMA           PTCLDY    68  65  90 VRB3      30.20F
WAYCROSS       PTCLDY    67  64  91 NE3       30.19F
JESUP          NOT AVBL
BAXLEY         FAIR      64  64 100 NE3       30.21F
BRUNSWICK      PTCLDY    70  64  83 CALM      30.20S
SAINT SIMONS   PTCLDY    76  70  82 E8        30.18F

$$

SCZ027-028-034-036>038-045-046-048>050-GAZ119-141-220800-
...LAKE AND SUPPLEMENTAL COASTAL OBSERVATIONS...

STATION/POSITION TIME  TEMP    WIND        PRES    WAVE   SWELL
                       AIR SEA DIR/SP/G            HT/PER HT/PER/DIR
                 (UTC) (F)     (DEG/KT/KT) (MB)    (FT/S) (FT/S/D)
WINYAH BAY       0545   72      80/  8     1025.0
LAKE MURRAY      0620   66     100/  4/  5 1025.1
ACE BASIN NERRS  0545   70      30/  2     1025.0
FORT PULASKI     0648      74   80/  7/  9 1023.5F
SAPELO ISLAND    NOT AVBL

$$

ANZ835-935-AMZ111-154-330-350-352-354-370-450-454-472-220800-
...C-MAN AND BUOY OBSERVATIONS...

STATION/POSITION TIME  TEMP    WIND        PRES    WAVE   SWELL
                       AIR SEA DIR/SP/G            HT/PER HT/PER/DIR
                 (UTC) (F)     (DEG/KT/KT) (MB)    (FT/S) (FT/S/D)
BUOY 41004       0650   78 79  100/ 14/ 16 1023.8F   4/ 8   2/110/ 8
BUOY 41008       0650   78 77  100/ 14/ 17 1022.1F   4/ 8   2/120/ 8
FOLLY BEACH CMAN 0600   72      40/  8/ 10 1025.1F
CAPERS NEARSHORE 0608   72 73   90/ 10/ 14 1024.3F
FRIPP NEARSHORE  0608   76     100/ 12/ 16   N/A


STATION/POSITION TIME  TEMP    WIND        PRES    WAVE   SWELL
                       AIR SEA DIR/SP/G            HT/PER HT/PER/DIR
                 (UTC) (F)     (DEG/KT/KT) (MB)    (FT/S) (FT/S/D)
5E ST. MARYS GA  0630      76                N/A     5/ 6
FRYING PAN BUOY  0650   76 76  120/ 10/ 14 1025.0F   3/ 9   3/130/ 9
BUOY 41025       0650   75 81   80/  8/ 10 1026.0F   3/ 8   3/110/ 8
CAPE LOOKOUT NC  0600   73      60/  8/  9 1026.0F
BUOY 41002       0650   76 80   90/ 12/ 16 1024.7F   5/ 8   3/ 80/ 8
BUOY 41010       NOT AVBL
ST AUGUSTINE FL  0700   79 77  100/ 17/ 19 1020.8F


$$




USA.gov is the U.S. government's official web portal to all federal, state and local government web resources and services.